カタログに戻る

STARLINK-5762

運用中通信VLEO
NORAD 55590·PAYLOAD·🇺🇸 United States

打ち上げ Feb 12, 2023 から Cape Canaveral Space Force Station

Loading…

次のパス (今後24時間)

TLE

最新Source: CelesTrak SupGP

元期: Sep 15, 2026, 01:46 UTC

1 55590C 23020X   26258.07409722 -.00025254  00000+0 -91476-3 0  2582
2 55590  43.0047  15.5921 0001684 279.2339 219.9937 15.27588724    11

AllMySatでSTARLINK-5762をリアルタイム追跡

Download on the App Store